Erie, PA

9:35 AM EDT on March 29, 2017 (GMT -0400)
Erie International

Weather History for KERI - January, 2013

Change the Weather History Date:

Wednesday, January 2, 2013

  Actual Average Record
Temperature  
Mean Temperature 24 °F 28 °F  
Max Temperature 25 °F 34 °F 61 °F (2000)
Min Temperature 22 °F 22 °F -5 °F (1879)
Degree Days  
Heating Degree Days 41 37  
Month to date heating degree days 77 74  
Since 1 July heating degree days 2099 2242  
Cooling Degree Days 0 0  
Month to date cooling degree days 0 0  
Year to date cooling degree days 0 0  
Moisture  
Dew Point 15 °F    
Average Humidity 72    
Maximum Humidity 81    
Minimum Humidity 62    
Precipitation  
Precipitation 0.00 in 0.11 in 0.60 in (1965)
Month to date precipitation T 0.22  
Year to date precipitation T 0.22  
Snow  
Snow 0.00 in 1.00 in - ()
Month to date snowfall T 2.1  
Since 1 July snowfall 23.5 38.3  
Snow Depth 6.00 in    
Sea Level Pressure  
Sea Level Pressure 30.13 in    
Wind  
Wind Speed 9 mph (SW)    
Max Wind Speed 16 mph    
Max Gust Speed 21 mph    
Visibility 10 miles    
Events      
T = Trace of Precipitation, MM = Missing Value Source: NWS Daily Summary

Daily Weather History Graph

Daily Weather History Graph

Search for Another Location

Airport or City:

Trip Planner

Search our weather history database for the weather conditions in past years. The results will help you decide how hot, cold, wet, or windy it might be!

Date:

Astronomy

Jan. 02, 2013 Rise Set
Actual Time 7:49 AM EST 5:00 PM EST
Civil Twilight 7:17 AM EST 5:32 PM EST
Nautical Twilight 6:42 AM EST 6:07 PM EST
Astronomical Twilight 6:08 AM EST 6:41 PM EST
Moon 10:38 PM EST (1/2) 10:24 AM EST (1/2)
Length of Visible Light 10h 14m
Length of Day
9h 11m
Waning Gibbous, 75% of the Moon is Illuminated
Jan 2
Waning Gibbous
Jan 4
Last Quarter
Jan 11
New
Jan 18
First Quarter
Jan 26
Full

Hourly Weather History & Observations

Time (EST) Temp. Windchill Dew Point Humidity Pressure Visibility Wind Dir Wind Speed Gust Speed Precip Events Conditions
12:51 AM 23.0 °F 14.7 °F 14.0 °F 68% 30.07 in 10.0 mi SW 6.9 mph - N/A   Overcast
1:40 AM 24.8 °F 14.6 °F 14.0 °F 64% 30.03 in 10.0 mi SW 10.4 mph - N/A   Overcast
1:51 AM 24.1 °F 17.0 °F 14.0 °F 65% 30.06 in 10.0 mi WSW 5.8 mph - N/A   Overcast
2:51 AM 23.0 °F 13.9 °F 14.0 °F 68% 30.04 in 10.0 mi SW 8.1 mph - N/A   Overcast
3:33 AM 23.0 °F 12.4 °F 14.0 °F 68% 30.03 in 10.0 mi SSW 10.4 mph - N/A   Overcast
3:40 AM 23.0 °F 11.7 °F 14.0 °F 68% 30.04 in 10.0 mi SW 11.5 mph - N/A   Overcast
3:51 AM 23.0 °F 13.1 °F 14.0 °F 68% 30.07 in 10.0 mi SW 9.2 mph - N/A   Overcast
4:51 AM 23.0 °F 13.9 °F 15.1 °F 72% 30.07 in 10.0 mi SSW 8.1 mph - N/A   Overcast
5:13 AM 23.0 °F 13.1 °F 15.8 °F 74% 30.04 in 10.0 mi SSW 9.2 mph - N/A   Overcast
5:20 AM 23.0 °F 12.4 °F 15.8 °F 74% 30.05 in 10.0 mi SW 10.4 mph - N/A   Overcast
5:32 AM 23.0 °F 11.7 °F 15.8 °F 74% 30.05 in 10.0 mi SW 11.5 mph - N/A   Overcast
5:51 AM 23.0 °F 13.1 °F 15.1 °F 72% 30.09 in 10.0 mi SW 9.2 mph - N/A   Overcast
6:51 AM 23.0 °F 13.1 °F 15.1 °F 72% 30.11 in 10.0 mi SW 9.2 mph - N/A   Overcast
7:51 AM 23.0 °F 13.9 °F 15.1 °F 72% 30.12 in 10.0 mi SW 8.1 mph - N/A   Overcast
8:51 AM 25.0 °F 14.8 °F 15.1 °F 66% 30.12 in 9.0 mi West 10.4 mph 17.3 mph N/A   Overcast
9:51 AM 24.1 °F 13.1 °F 15.1 °F 69% 30.15 in 10.0 mi West 11.5 mph - N/A   Overcast
10:51 AM 24.1 °F 15.2 °F 15.1 °F 69% 30.17 in 10.0 mi West 8.1 mph 17.3 mph N/A   Overcast
11:51 AM 24.1 °F 13.7 °F 15.1 °F 69% 30.17 in 10.0 mi WNW 10.4 mph - N/A   Overcast
12:51 PM 24.1 °F 13.7 °F 15.1 °F 69% 30.18 in 10.0 mi West 10.4 mph 17.3 mph N/A   Overcast
1:51 PM 23.0 °F 11.7 °F 15.1 °F 72% 30.19 in 10.0 mi WSW 11.5 mph 16.1 mph N/A   Overcast
2:51 PM 24.8 °F 16.9 °F 15.8 °F 69% 30.15 in 10.0 mi West 6.9 mph - N/A   Overcast
3:51 PM 23.0 °F 13.9 °F 15.1 °F 72% 30.19 in 10.0 mi SSW 8.1 mph - N/A   Overcast
4:51 PM 24.1 °F 15.2 °F 15.1 °F 69% 30.20 in 10.0 mi SSW 8.1 mph - N/A   Overcast
5:51 PM 23.0 °F 13.9 °F 15.8 °F 74% 30.16 in 10.0 mi SSW 8.1 mph - N/A   Overcast
6:51 PM 23.0 °F 13.1 °F 17.1 °F 78% 30.21 in 10.0 mi SSW 9.2 mph - N/A   Overcast
7:51 PM 23.0 °F 12.4 °F 16.0 °F 74% 30.21 in 8.0 mi SSW 10.4 mph - N/A   Overcast
8:51 PM 23.0 °F 13.1 °F 16.0 °F 74% 30.22 in 10.0 mi SSW 9.2 mph - N/A   Overcast
9:51 PM 23.0 °F 14.7 °F 15.1 °F 72% 30.23 in 8.0 mi SSW 6.9 mph - 0.00 in   Overcast
10:51 PM 21.9 °F 9.8 °F 14.0 °F 72% 30.22 in 10.0 mi SSW 12.7 mph - N/A   Overcast
11:51 PM 21.9 °F 12.5 °F 12.9 °F 68% 30.22 in 10.0 mi SSW 8.1 mph - N/A   Overcast